Location: Unspecified
(42.3650°N, 71.1030°W)
Time: 22:14:38
(UTC+00:00)

NOAA 6 - Pass Details

Date: 02 March 2024
Orbit: 769 x 785 km, 98.6° (Epoch: 15 April)

Event Time Altitude Azimuth Distance (km) Brightness Sun altitude
Rises 22:50:50 0° 161° (SSE) 3,261 7.1 -3.5°
Reaches altitude 10° 22:53:08 10° 160° (SSE) 2,337 6.4 -3.9°
Maximum altitude 22:58:17 79° 75° (ENE) 805 4.1 -4.9°
Drops below altitude 10° 23:03:29 10° 349° (N) 2,352 6.6 -5.8°
Sets 23:05:49 0° 348° (NNW) 3,283 7.4 -6.3°
